Weather History for FOOG - July, 2013

Change the Weather History Date:

Thursday, July 18, 2013

  Actual Average Record
Temperature  
Mean Temperature 74 °F -  
Max Temperature 77 °F 80 °F - ()
Min Temperature 71 °F 71 °F - ()
Cooling Degree Days 9    
Growing Degree Days 24 (Base 50)    
Moisture  
Dew Point 67 °F    
Average Humidity 78    
Maximum Humidity 88    
Minimum Humidity 67    
Precipitation  
Precipitation 0.00 in 0.01 in - ()
Sea Level Pressure  
Sea Level Pressure 29.98 in    
Wind  
Wind Speed 11 mph ()    
Max Wind Speed 20 mph    
Max Gust Speed -    
Visibility 6.0 miles    
Events      
T = Trace of Precipitation, MM = Missing Value Source: Averaged Metar Reports

Daily Weather History Graph

Daily Weather History Graph

Search for Another Location

Airport or City:

Trip Planner

Search our weather history database for the weather conditions in past years. The results will help you decide how hot, cold, wet, or windy it might be!

Date:

Astronomy

Jul. 18, 2013 Rise Set
Actual Time 6:28 AM WAT 6:33 PM WAT
Civil Twilight 6:06 AM WAT 6:55 PM WAT
Nautical Twilight 5:40 AM WAT 7:21 PM WAT
Astronomical Twilight 5:15 AM WAT 7:47 PM WAT
Moon 2:20 PM WAT (7/18) 1:52 AM WAT (7/18)
Length of Visible Light 12h 49m
Length of Day
12h 05m
Waxing Gibbous, 75% of the Moon is Illuminated
Jul 18
Waxing Gibbous
Jul 22
Full
Jul 29
Last Quarter
Aug 6
New
Aug 14
First Quarter

Hourly Weather History & Observations

Time (WAT) Temp. Dew Point Humidity Pressure Visibility Wind Dir Wind Speed Gust Speed Precip Events Conditions
1:00 AM 73 °F 66 °F 73% 30.00 in 6 mi SSE 9.2 mph - -   Overcast
6:00 AM 71.6 °F 66.2 °F 83% 29.98 in 5.0 mi South 9.2 mph - N/A   Overcast
7:00 AM 72 °F 67 °F 79% 30.00 in 6 mi South 13.8 mph - -   Overcast
7:00 AM 71.6 °F 66.2 °F 83% 29.98 in 6.2 mi South 11.5 mph - N/A   Overcast
8:00 AM 73.4 °F 68.0 °F 83% 30.01 in 6.2 mi South 13.8 mph - N/A   Mostly Cloudy
9:00 AM 73.4 °F 66.2 °F 78% 30.01 in 6.2 mi South 11.5 mph - N/A   Mostly Cloudy
10:00 AM 75.2 °F 68.0 °F 78% 30.04 in 6.2 mi SSE 16.1 mph - N/A   Scattered Clouds
12:00 PM 75.2 °F 68.0 °F 78% 30.01 in 6.2 mi South 19.6 mph - N/A   Scattered Clouds
1:00 PM 76 °F 67 °F 67% 29.99 in 6 mi South 18.4 mph - -   Scattered Clouds
1:00 PM 77.0 °F 68.0 °F 74% 29.98 in 6.2 mi South 15.0 mph - N/A   Partly Cloudy
2:00 PM 77.0 °F 66.2 °F 69% 29.95 in 6.2 mi South 16.1 mph - N/A   Partly Cloudy
3:00 PM 75.2 °F 66.2 °F 73% 29.92 in 6.2 mi South 16.1 mph - N/A   Partly Cloudy
5:00 PM 75.2 °F 66.2 °F 73% 29.92 in 6.2 mi South 16.1 mph - N/A   Partly Cloudy
6:00 PM 73.4 °F 66.2 °F 78% 29.95 in 6.2 mi South 16.1 mph - N/A   Scattered Clouds
7:00 PM 72 °F 67 °F 79% 29.96 in 4 mi South 9.2 mph - -   Scattered Clouds
7:00 PM 71.6 °F 66.2 °F 83% 29.95 in 6.2 mi South 9.2 mph - N/A   Partly Cloudy
8:00 PM 71.6 °F 66.2 °F 83% 29.95 in 6.2 mi South 8.1 mph - N/A   Partly Cloudy
9:00 PM 71.6 °F 66.2 °F 83% 29.98 in 6.2 mi South 10.4 mph - N/A   Partly Cloudy
10:00 PM 71.6 °F 68.0 °F 88% 29.98 in 6.2 mi South 9.2 mph - N/A   Scattered Clouds